Location: Bruderhein
(53.8035°N, 112.9265°W)
Time: 12:41:58
(UTC+00:00)

deb Delta 139 - Pass Details

Date: 11 December 2023
Orbit: 731 x 794 km, 98.6° (Epoch: 01 March)

Event Time Altitude Azimuth Distance (km) Brightness Sun altitude
Rises 13:35:06 0° 24° (NNE) 3,183 ? -16.9°
Reaches altitude 10° 13:37:51 10° 39° (NE) 2,249 ? -16.5°
Maximum altitude 13:41:46 23° 91° (E) 1,524 ? -16.0°
Drops below altitude 10° 13:45:39 10° 144° (SE) 2,230 ? -15.4°
Sets 13:48:21 0° 159° (SSE) 3,149 ? -15.1°
